KC1KAD Weather Reports


time (UTC)temp
C
wind
direction
speed
KPH
gust
KPH
rain 1hr
cm
rain 24hr
cm
rain mn
cm
humidity
%
barometer
mb
20260504012403 12 288 0.0 3.2 0.00 0.00 0.00 43 1016.6
20260504011902 12 294 1.6 3.2 0.00 0.00 0.00 43 1016.6
20260504011403 12 0 1.6 3.2 0.00 0.00 0.00 42 1016.5
20260504010902 12 355 1.6 3.2 0.00 0.00 0.00 42 1016.5
20260504010131 12 0 0.0 3.2 0.00 0.00 0.00 42 1016.4
20260504005403 12 292 0.0 3.2 0.00 0.00 0.00 42 1016.3
20260504004903 13 280 0.0 3.2 0.00 0.00 0.00 43 1016.2
20260504004621 13 354 0.0 1.6 0.00 0.00 0.00 44 1016.1
20260504003901 13 0 0.0 1.6 0.00 0.00 0.00 44 1016.1
20260504003403 13 0 1.6 3.2 0.00 0.00 0.00 44 1016.1
20260504002902 13 10 1.6 4.8 0.00 0.00 0.00 42 1016.1
20260504002402 14 28 1.6 4.8 0.00 0.00 0.00 40 1016.1
20260504001902 14 347 1.6 3.2 0.00 0.00 0.00 38 1016.1
20260504001401 14 0 0.0 3.2 0.00 0.00 0.00 38 1016.0
20260504000902 15 300 0.0 3.2 0.00 0.00 0.00 38 1016.0
20260504000402 15 279 0.0 3.2 0.00 0.00 0.00 38 1015.8
20260503235902 15 0 0.0 1.6 0.00 0.00 0.00 36 1015.8
20260503235402 15 0 0.0 3.2 0.00 0.00 0.00 36 1016.0
20260503235125 15 286 1.6 3.2 0.00 0.00 0.00 36 1016.0
20260503234623 15 0 1.6 3.2 0.00 0.00 0.00 35 1015.8
20260503233901 15 277 0.0 3.2 0.00 0.00 0.00 35 1015.8
20260503233402 15 296 0.0 1.6 0.00 0.00 0.00 34 1015.7
20260503232901 15 0 0.0 3.2 0.00 0.00 0.00 34 1015.7
20260503232402 16 316 0.0 3.2 0.00 0.00 0.00 34 1015.7
20260503231902 16 0 0.0 4.8 0.00 0.00 0.00 33 1015.7
20260503231626 16 294 0.0 4.8 0.00 0.00 0.00 32 1015.7
20260503230902 16 327 0.0 3.2 0.00 0.00 0.00 34 1015.7
20260503230401 16 0 0.0 3.2 0.00 0.00 0.00 33 1015.7
20260503225901 16 318 0.0 3.2 0.00 0.00 0.00 34 1015.7
20260503225401 16 210 0.0 3.2 0.00 0.00 0.00 34 1015.7
20260503224902 16 0 0.0 3.2 0.00 0.00 0.00 32 1015.7
20260503224403 16 279 1.6 3.2 0.00 0.00 0.00 33 1015.7
20260503223902 16 234 0.0 3.2 0.00 0.00 0.00 33 1015.7
20260503222902 16 0 1.6 3.2 0.00 0.00 0.00 35 1015.7
20260503222402 17 228 1.6 3.2 0.00 0.00 0.00 35 1015.7
20260503221902 17 320 0.0 3.2 0.00 0.00 0.00 36 1015.7
20260503221402 17 280 0.0 3.2 0.00 0.00 0.00 34 1015.7
20260503220902 17 246 0.0 3.2 0.00 0.00 0.00 34 1015.7
20260503220403 17 0 0.0 3.2 0.00 0.00 0.00 34 1015.8
20260503215903 17 0 0.0 3.2 0.00 0.00 0.00 32 1015.8
20260503215402 17 43 0.0 4.8 0.00 0.00 0.00 36 1015.8
20260503214902 17 0 0.0 4.8 0.00 0.00 0.00 34 1015.8
20260503214402 17 0 0.0 4.8 0.00 0.00 0.00 36 1015.8
20260503214128 17 0 0.0 4.8 0.00 0.00 0.00 35 1015.8
20260503213402 17 0 1.6 8.0 0.00 0.00 0.00 34 1015.8
20260503211403 18 53 0.0 3.2 0.00 0.00 0.00 38 1016.1
20260503210902 18 0 0.0 3.2 0.00 0.00 0.00 38 1016.1
20260503210402 18 272 1.6 4.8 0.00 0.00 0.00 38 1016.2
20260503205902 17 0 1.6 6.4 0.00 0.00 0.00 38 1016.2
20260503205619 17 44 1.6 6.4 0.00 0.00 0.00 38 1016.2
20260503204902 17 176 1.6 6.4 0.00 0.00 0.00 41 1016.2
20260503204402 17 17 1.6 4.8 0.00 0.00 0.00 40 1016.3
20260503203902 17 319 1.6 4.8 0.00 0.00 0.00 41 1016.3
20260503203620 17 325 1.6 4.8 0.00 0.00 0.00 41 1016.4
20260503202902 17 300 1.6 4.8 0.00 0.00 0.00 41 1016.3
20260503202402 17 0 1.6 6.4 0.00 0.00 0.00 40 1016.4
20260503201902 17 0 1.6 6.4 0.00 0.00 0.00 40 1016.4
20260503201624 17 147 1.6 4.8 0.00 0.00 0.00 42 1016.6
20260503200902 17 195 1.6 4.8 0.00 0.00 0.00 41 1016.6
20260503200402 17 176 1.6 6.4 0.00 0.00 0.00 40 1016.7
20260503195902 17 292 1.6 6.4 0.00 0.00 0.00 40 1016.7
20260503195401 17 306 1.6 4.8 0.00 0.00 0.00 40 1016.8
20260503194401 17 0 1.6 6.4 0.00 0.00 0.00 41 1016.8
20260503193901 17 185 3.2 8.0 0.00 0.00 0.00 42 1016.8
20260503193401 18 172 3.2 8.0 0.00 0.00 0.00 41 1016.8
20260503192902 18 328 1.6 6.4 0.00 0.00 0.00 41 1017.5
20260503192402 18 198 3.2 8.0 0.00 0.00 0.00 40 1018.0
20260503191902 18 349 3.2 8.0 0.00 0.00 0.00 40 1017.9
20260503191401 18 344 1.6 4.8 0.00 0.00 0.00 40 1018.2
20260503190901 18 179 1.6 6.4 0.00 0.00 0.00 40 1018.3
20260503190626 18 190 1.6 6.4 0.00 0.00 0.00 39 1018.4
20260503185901 18 199 1.6 6.4 0.00 0.00 0.00 38 1018.5
20260503185401 18 153 1.6 4.8 0.00 0.00 0.00 39 1018.5
20260503184902 18 58 1.6 4.8 0.00 0.00 0.00 40 1018.7
20260503184127 17 2 1.6 6.4 0.00 0.00 0.00 41 1019.2
20260503183403 17 216 1.6 6.4 0.00 0.00 0.00 42 1018.5
20260503182621 16 0 3.2 6.4 0.00 0.00 0.00 42 1018.5
20260503181402 16 178 1.6 6.4 0.00 0.00 0.00 41 1018.6
20260503181121 16 159 3.2 6.4 0.00 0.00 0.00 42 1018.6
20260503180402 16 312 3.2 8.0 0.00 0.00 0.00 42 1018.9
20260503175902 16 0 3.2 8.0 0.00 0.00 0.00 42 1018.5
20260503175402 16 37 1.6 4.8 0.00 0.00 0.00 44 1018.5
20260503174903 15 218 1.6 4.8 0.00 0.00 0.00 44 1018.3
20260503174402 15 222 3.2 6.4 0.00 0.00 0.00 43 1018.5
20260503174122 15 199 1.6 6.4 0.00 0.00 0.00 44 1018.4
20260503173402 15 171 3.2 4.8 0.00 0.00 0.00 43 1018.9
20260503172902 15 180 3.2 4.8 0.00 0.00 0.00 44 1019.4
20260503172402 15 129 3.2 8.0 0.00 0.00 0.00 46 1020.0
20260503172122 15 188 3.2 8.0 0.00 0.00 0.00 44 1019.7
20260503171402 15 256 1.6 6.4 0.00 0.00 0.00 43 1019.6
20260503170901 15 151 1.6 4.8 0.00 0.00 0.00 45 1019.8
20260503170625 15 0 1.6 4.8 0.00 0.00 0.00 45 1019.8
20260503150902 11 0 1.6 4.8 0.00 0.03 0.00 59 1020.3
20260503150623 11 56 1.6 6.4 0.00 0.03 0.00 60 1020.3
20260503150121 11 178 1.6 6.4 0.00 0.03 0.00 59 1020.3
20260503131120 6 0 1.6 3.2 0.00 0.03 0.00 83 1020.1
20260503130619 6 18 1.6 3.2 0.00 0.03 0.00 83 1020.1
20260503130126 6 270 1.6 3.2 0.00 0.03 0.00 85 1020.0
20260503110401 2 265 0.0 1.6 0.00 0.03 0.00 91 1018.3
20260503081400 5 267 1.6 1.6 0.00 0.03 0.00 82 1016.8
20260503080900 5 315 1.6 3.2 0.00 0.03 0.00 82 1016.7
20260503080402 5 344 1.6 3.2 0.00 0.03 0.00 82 1016.6
20260503072402 6 278 1.6 3.2 0.00 0.03 0.00 73 1016.5
20260503071902 6 310 1.6 3.2 0.00 0.03 0.00 72 1016.5
20260503071403 6 303 1.6 3.2 0.00 0.03 0.00 72 1016.5
20260503070903 6 292 0.0 1.6 0.00 0.03 0.00 72 1016.4
20260503070129 6 287 1.6 1.6 0.00 0.03 0.00 73 1016.4
20260503060121 7 284 1.6 3.2 0.00 0.03 0.00 67 1016.3
20260503054901 7 310 1.6 3.2 0.00 0.03 0.00 67 1016.4
20260503054401 7 289 1.6 3.2 0.00 0.03 0.00 67 1016.4
20260503053901 7 284 1.6 3.2 0.00 0.03 0.00 67 1016.5
20260503053400 7 249 1.6 3.2 0.00 0.03 0.00 68 1016.5
20260503052901 7 230 1.6 3.2 0.00 0.03 0.00 70 1016.6
20260503052401 7 0 0.0 3.2 0.00 0.03 0.00 72 1016.7
20260503051401 7 285 1.6 3.2 0.00 0.03 0.00 70 1016.7
20260503051118 7 292 1.6 3.2 0.00 0.03 0.00 70 1016.7
20260503050401 7 250 1.6 3.2 0.00 0.03 0.00 71 1016.7
20260503050121 7 0 1.6 3.2 0.00 0.03 0.00 71 1016.7
20260503045400 7 226 1.6 3.2 0.00 0.03 0.00 70 1016.7
20260503044401 7 270 1.6 3.2 0.00 0.03 0.00 73 1016.6
20260503043901 7 231 1.6 3.2 0.00 0.03 0.00 74 1016.5
20260503043401 7 275 1.6 3.2 0.00 0.03 0.00 73 1016.4
20260503042901 7 295 0.0 3.2 0.00 0.03 0.00 72 1016.5
20260503042401 8 0 0.0 3.2 0.00 0.03 0.00 72 1016.5
20260503042122 8 275 0.0 3.2 0.00 0.03 0.00 70 1016.4
20260503041624 8 283 0.0 3.2 0.00 0.03 0.00 70 1016.3
20260503040902 8 0 0.0 3.2 0.00 0.03 0.00 68 1016.3
20260503040401 8 277 0.0 3.2 0.00 0.03 0.00 67 1016.2
20260503035901 8 244 0.0 3.2 0.00 0.03 0.03 65 1016.2
20260503035401 8 274 0.0 1.6 0.00 0.03 0.03 65 1016.2
20260503035122 8 0 0.0 1.6 0.00 0.03 0.03 64 1016.2
20260503034401 8 260 0.0 3.2 0.00 0.03 0.03 65 1016.1
20260503033902 8 0 0.0 3.2 0.00 0.03 0.03 64 1016.1
20260503033402 8 282 1.6 3.2 0.00 0.03 0.03 62 1016.1
20260503032902 8 302 1.6 1.6 0.00 0.03 0.03 61 1016.0
20260503032624 8 301 0.0 1.6 0.00 0.03 0.03 61 1016.0
20260503032121 8 159 0.0 1.6 0.00 0.03 0.03 61 1016.0
20260503031401 8 0 1.6 3.2 0.00 0.03 0.03 62 1016.0
20260503030901 8 273 1.6 3.2 0.00 0.03 0.03 62 1016.0
20260503030401 8 38 1.6 3.2 0.00 0.03 0.03 60 1016.0
20260503025901 8 306 1.6 1.6 0.00 0.03 0.03 60 1015.8
20260503025621 8 298 1.6 3.2 0.00 0.03 0.03 60 1015.8
20260503025119 8 313 1.6 3.2 0.00 0.03 0.03 60 1015.7
20260503024401 8 274 1.6 3.2 0.00 0.03 0.03 60 1015.6
20260503023901 8 272 1.6 3.2 0.00 0.03 0.03 61 1015.5
20260503022901 8 0 0.0 3.2 0.00 0.03 0.03 59 1015.4
20260503022401 8 345 1.6 3.2 0.00 0.03 0.03 59 1015.3
20260503021901 8 295 1.6 3.2 0.00 0.03 0.03 59 1015.3
20260503021400 8 248 1.6 3.2 0.00 0.03 0.03 59 1015.3
20260503020900 9 271 1.6 3.2 0.00 0.03 0.03 59 1015.3
20260503020401 9 310 1.6 4.8 0.00 0.03 0.03 58 1015.2
20260503015901 9 278 1.6 4.8 0.00 0.03 0.03 59 1015.2
20260503015401 9 228 1.6 4.8 0.00 0.03 0.03 58 1015.0
20260503014901 9 257 1.6 4.8 0.00 0.03 0.03 57 1015.0
20260503014626 10 349 1.6 4.8 0.00 0.03 0.03 57 1014.9
20260503014119 10 314 1.6 3.2 0.00 0.03 0.03 57 1014.9
20260503013401 10 300 1.6 3.2 0.00 0.03 0.03 57 1014.9
20260503013124 10 290 1.6 3.2 0.00 0.03 0.03 56 1014.8